Weather History for Barksdale AFB, LA

Change the Weather History Date:

Friday, February 1, 2013

  Actual Average Record
Temperature  
Mean Temperature 47 °F -  
Max Temperature 57 °F 54 °F 77 °F (2012)
Min Temperature 37 °F 36 °F 18 °F (2011)
Degree Days  
Heating Degree Days 18    
Moisture  
Dew Point 27 °F    
Average Humidity 51    
Maximum Humidity 75    
Minimum Humidity 31    
Precipitation  
Precipitation 0.00 in - - ()
Sea Level Pressure  
Sea Level Pressure 30.35 in    
Wind  
Wind Speed 6 mph (East)    
Max Wind Speed 12 mph    
Max Gust Speed -    
Visibility 10 miles    
Events      
Averages and records for this station are not official NWS values.
T = Trace of Precipitation, MM = Missing Value Source: NWS Daily Summary

Daily Weather History Graph

Daily Weather History Graph

Search for Another Location

Airport:

Trip Planner

Search our weather history database for the weather conditions in past years. The results will help you decide how hot, cold, wet, or windy it might be!

Date:

Astronomy

Feb. 01, 2013 Rise Set
Actual Time 7:08 AM CST 5:48 PM CST
Civil Twilight 6:43 AM CST 6:13 PM CST
Nautical Twilight 6:13 AM CST 6:43 PM CST
Astronomical Twilight 5:44 AM CST 7:12 PM CST
Moon 11:31 PM CST (2/1) 10:05 AM CST (2/1)
Length of Visible Light 11h 30m
Length of Day
10h 39m
Waning Gibbous, 70% of the Moon is Illuminated
Feb 1
Waning Gibbous
Feb 3
Last Quarter
Feb 10
New
Feb 17
First Quarter
Feb 25
Full

Hourly Weather History & Observations

Time (CST) Temp. Windchill Dew Point Humidity Pressure Visibility Wind Dir Wind Speed Gust Speed Precip Events Conditions
12:58 AM 41.9 °F - 30.6 °F 64% 30.32 in 10.0 mi SE 2.3 mph - N/A   Clear
1:58 AM 40.6 °F 38.6 °F 31.3 °F 69% 30.34 in 10.0 mi NNW 3.5 mph - N/A   Clear
2:58 AM 43.5 °F 40.1 °F 29.8 °F 59% 30.35 in 10.0 mi ENE 5.8 mph - N/A   Clear
3:55 AM 42.8 °F 39.3 °F 30.2 °F 61% 30.35 in 10.0 mi NE 5.8 mph - N/A   Clear
4:55 AM 41.0 °F 38.0 °F 28.4 °F 61% 30.36 in 10.0 mi ENE 4.6 mph - N/A   Clear
5:55 AM 41.0 °F 37.1 °F 28.4 °F 61% 30.38 in 10.0 mi NE 5.8 mph - N/A   Clear
6:55 AM 37.4 °F 33.8 °F 30.2 °F 75% 30.40 in 10.0 mi NE 4.6 mph - N/A   Clear
7:55 AM 39.2 °F 34.2 °F 30.2 °F 70% 30.43 in 10.0 mi ENE 6.9 mph - N/A   Mostly Cloudy
8:58 AM 41.7 °F 35.2 °F 28.8 °F 60% 30.46 in 10.0 mi ENE 11.5 mph - N/A   Clear
9:58 AM 42.8 °F 36.6 °F 24.8 °F 49% 30.46 in - East 11.5 mph - N/A   Clear
10:58 AM 46.8 °F - 24.6 °F 42% 30.45 in 10.0 mi NE 8.1 mph - N/A   Clear
11:58 AM 50.0 °F - 23.5 °F 36% 30.42 in 10.0 mi East 8.1 mph - N/A   Clear
12:58 PM 53.1 °F - 23.2 °F 31% 30.39 in 10.0 mi ENE 6.9 mph - N/A   Clear
1:58 PM 55.8 °F - 27.3 °F 34% 30.35 in 10.0 mi ESE 6.9 mph - N/A   Clear
2:58 PM 56.8 °F - 27.0 °F 32% 30.33 in 10.0 mi ESE 8.1 mph - N/A   Clear
3:58 PM 57.6 °F - 28.6 °F 33% 30.31 in 10.0 mi SE 6.9 mph - N/A   Clear
4:58 PM 56.3 °F - 28.0 °F 34% 30.29 in 10.0 mi ESE 9.2 mph - N/A   Clear
5:58 PM 51.3 °F - 25.9 °F 37% 30.28 in 10.0 mi East 8.1 mph - N/A   Clear
6:58 PM 48.2 °F - 25.7 °F 42% 30.28 in 10.0 mi East 9.2 mph - N/A   Clear
7:58 PM 46.8 °F - 25.5 °F 43% 30.27 in 10.0 mi ESE 10.4 mph - N/A   Clear
8:58 PM 44.2 °F 38.8 °F 25.9 °F 49% 30.29 in 10.0 mi ESE 10.4 mph - N/A   Clear
9:58 PM 42.1 °F 37.7 °F 26.6 °F 54% 30.29 in 10.0 mi SE 6.9 mph - N/A   Clear
10:58 PM 39.7 °F 34.9 °F 26.8 °F 60% 30.30 in 10.0 mi SE 6.9 mph - N/A   Clear
11:58 PM 38.1 °F 33.7 °F 27.3 °F 65% 30.29 in 10.0 mi SSE 5.8 mph - N/A   Clear